IK3CSU Weather Reports


time (UTC)temp
C
wind
direction
speed
KPH
gust
KPH
rain 1hr
cm
rain 24hr
cm
rain mn
cm
humidity
%
barometer
mb
20260507210010 14 35 0.0 6.4 0.00 0.03 0.03 81 1014.8
20260507205110 14 109 0.0 6.4 0.00 0.03 0.03 80 1014.8
20260507204210 14 55 0.0 4.8 0.00 0.03 0.03 79 1014.8
20260507203310 15 108 0.0 4.8 0.00 0.03 0.03 79 1014.7
20260507202411 15 20 1.6 6.4 0.00 0.03 0.03 77 1014.6
20260507201510 15 19 4.8 12.9 0.00 0.03 0.03 76 1014.5
20260507200821 15 2 3.2 11.3 0.00 0.03 0.03 74 1014.5
20260507195924 15 12 3.2 6.4 0.00 0.03 0.03 72 1014.5
20260507195021 15 356 0.0 6.4 0.00 0.03 0.03 71 1014.5
20260507193910 15 81 0.0 4.8 0.00 0.03 0.03 71 1014.2
20260507193010 15 14 1.6 6.4 0.00 0.03 0.03 71 1014.0
20260507192323 15 25 3.2 8.0 0.00 0.03 0.03 71 1013.8
20260507191420 15 9 1.6 4.8 0.00 0.03 0.03 71 1013.9
20260507190310 15 4 1.6 6.4 0.00 0.03 0.03 70 1013.6
20260507185620 15 24 0.0 6.4 0.00 0.03 0.03 70 1013.7
20260507184722 16 24 0.0 4.8 0.00 0.03 0.03 69 1013.5
20260507183610 16 30 0.0 4.8 0.00 0.03 0.03 67 1013.3
20260507182922 16 41 1.6 4.8 0.00 0.03 0.03 65 1013.2
20260507181810 17 109 1.6 6.4 0.00 0.03 0.03 63 1013.1
20260507181122 17 129 1.6 6.4 0.00 0.03 0.03 63 1013.0
20260507180224 17 115 0.0 6.4 0.00 0.03 0.03 63 1012.7
20260507175110 17 123 1.6 6.4 0.00 0.03 0.03 64 1012.6
20260507174210 17 126 1.6 8.0 0.00 0.03 0.03 64 1012.4
20260507173521 17 119 1.6 9.7 0.00 0.03 0.03 65 1012.4
20260507172623 17 106 1.6 9.7 0.00 0.03 0.03 66 1012.3
20260507171510 17 98 3.2 11.3 0.00 0.03 0.03 66 1012.2
20260507170823 17 131 1.6 8.0 0.00 0.03 0.03 66 1012.1
20260507165920 17 144 1.6 8.0 0.00 0.03 0.03 65 1012.2
20260507164810 18 118 1.6 11.3 0.00 0.03 0.03 66 1012.3
20260507163910 18 118 3.2 17.7 0.00 0.03 0.03 66 1012.3
20260507163222 18 94 3.2 17.7 0.00 0.03 0.03 66 1012.3
20260507162320 18 130 3.2 12.9 0.00 0.03 0.03 62 1012.3
20260507161422 18 125 3.2 11.3 0.00 0.03 0.03 61 1012.2
20260507160310 18 103 4.8 17.7 0.00 0.03 0.03 59 1012.2
20260507155622 19 111 4.8 17.7 0.00 0.03 0.03 58 1012.2
20260507154724 19 101 4.8 12.9 0.00 0.03 0.03 57 1012.1
20260507153821 18 114 4.8 12.9 0.00 0.03 0.03 53 1012.1
20260507152710 18 95 6.4 14.5 0.00 0.03 0.03 49 1012.0
20260507151810 18 99 6.4 14.5 0.00 0.03 0.03 46 1011.9
20260507151123 18 61 4.8 12.9 0.00 0.03 0.03 49 1011.8
20260507150221 18 70 4.8 14.5 0.00 0.03 0.03 52 1011.8
20260507145323 17 58 4.8 12.9 0.00 0.03 0.03 54 1011.8
20260507144420 18 60 8.0 22.5 0.00 0.03 0.03 54 1012.0
20260507143310 19 43 6.4 20.9 0.00 0.03 0.03 52 1011.6
20260507142411 18 331 4.8 17.7 0.00 0.03 0.03 52 1010.9
20260507141723 18 341 6.4 27.4 0.00 0.05 0.03 51 1011.2
20260507140820 20 174 8.0 27.4 0.00 0.15 0.03 48 1011.5
20260507135922 21 166 4.8 14.5 0.00 0.15 0.03 47 1011.2
20260507134810 21 174 3.2 6.4 0.00 0.23 0.03 51 1011.3
20260507133910 21 175 3.2 11.3 0.00 0.33 0.03 50 1011.3
20260507133224 21 192 4.8 12.9 0.00 0.38 0.03 50 1011.3
20260507132322 21 173 3.2 12.9 0.00 0.43 0.03 50 1011.4
20260507131424 21 140 3.2 12.9 0.00 0.43 0.03 52 1011.5
20260507130310 21 130 3.2 12.9 0.00 0.43 0.03 50 1011.6
20260507125410 21 165 4.8 17.7 0.00 0.43 0.03 49 1011.6
20260507124721 22 163 4.8 12.9 0.00 0.43 0.03 49 1011.5
20260507123610 22 167 3.2 12.9 0.00 0.43 0.03 45 1011.4
20260507122710 22 213 6.4 12.9 0.00 0.43 0.03 43 1011.4
20260507121810 22 221 4.8 14.5 0.00 0.43 0.03 44 1011.6
20260507121120 22 179 3.2 14.5 0.00 0.43 0.03 43 1011.5
20260507120010 22 175 3.2 12.9 0.00 0.43 0.03 42 1011.6
20260507115320 22 212 3.2 12.9 0.00 0.43 0.03 43 1011.7
20260507114422 22 188 1.6 11.3 0.00 0.43 0.03 44 1011.7
20260507113520 21 220 3.2 11.3 0.00 0.43 0.03 44 1011.7
20260507112622 21 208 4.8 11.3 0.00 0.43 0.03 42 1012.0
20260507111510 21 205 3.2 12.9 0.00 0.43 0.03 43 1011.9
20260507110610 21 190 1.6 6.4 0.00 0.46 0.03 46 1012.0
20260507105924 21 221 4.8 12.9 0.00 0.46 0.03 46 1012.1
20260507105021 21 192 3.2 12.9 0.00 0.46 0.03 45 1012.1
20260507104124 21 210 3.2 11.3 0.00 0.46 0.03 51 1012.2
20260507103010 20 228 3.2 11.3 0.00 0.46 0.03 52 1012.3
20260507102110 20 223 4.8 16.1 0.00 0.46 0.03 49 1012.3
20260507101210 20 203 0.0 6.4 0.00 0.46 0.03 52 1012.4
20260507100310 20 160 1.6 6.4 0.00 0.46 0.03 57 1012.5
20260507095620 20 214 3.2 11.3 0.00 0.46 0.03 58 1012.5
20260507094510 20 216 3.2 11.3 0.00 0.48 0.03 59 1012.5
20260507093610 19 221 3.2 12.9 0.00 0.48 0.03 61 1012.4
20260507092710 19 240 3.2 11.3 0.00 0.48 0.03 60 1012.4
20260507092020 19 221 3.2 9.7 0.00 0.48 0.03 59 1012.3
20260507091122 20 226 1.6 9.7 0.00 0.48 0.03 60 1012.4
20260507090225 21 190 1.6 8.0 0.00 0.48 0.03 66 1012.4
20260507085110 20 211 3.2 8.0 0.00 0.48 0.03 68 1012.3
20260507084424 20 221 1.6 6.4 0.00 0.48 0.03 72 1012.3
20260507083310 18 212 3.2 9.7 0.00 0.48 0.03 73 1012.4
20260507082624 18 224 4.8 12.9 0.00 0.48 0.03 72 1012.3
20260507081721 19 181 1.6 6.4 0.00 0.48 0.03 76 1012.2
20260507080610 18 43 1.6 4.8 0.03 0.48 0.03 83 1012.2
20260507075710 17 296 0.0 4.8 0.03 0.48 0.03 84 1012.2
20260507074810 18 314 1.6 6.4 0.03 0.48 0.03 85 1012.1
20260507073911 17 23 3.2 9.7 0.03 0.48 0.03 89 1012.1
20260507073223 17 13 3.2 9.7 0.03 0.48 0.03 91 1012.0
20260507072111 16 347 3.2 8.0 0.03 0.48 0.03 96 1012.1
20260507071423 16 9 1.6 6.4 0.00 0.46 0.00 99 1012.0
20260507070520 16 265 0.0 4.8 0.00 0.46 0.00 99 1012.1
20260507065410 15 6 1.6 6.4 0.00 0.46 0.00 99 1012.1
20260507064720 15 331 0.0 6.4 0.00 0.46 0.00 99 1012.0
20260507063822 15 282 0.0 3.2 0.00 0.46 0.00 99 1011.9
20260507062710 14 27 0.0 3.2 0.00 0.46 0.00 99 1011.9
20260507061810 13 190 0.0 3.2 0.00 0.46 0.00 99 1011.8
20260507060910 13 225 0.0 1.6 0.00 0.46 0.00 99 1011.8
20260507060221 13 216 0.0 4.8 0.00 0.46 0.00 99 1011.8
20260507055324 13 231 0.0 3.2 0.00 0.46 0.00 99 1011.9
20260507054210 13 225 0.0 1.6 0.00 0.46 0.00 99 1011.7
20260507053523 13 239 0.0 3.2 0.00 0.46 0.00 99 1011.6
20260507052621 12 237 0.0 3.2 0.00 0.46 0.00 99 1011.6
20260507051723 12 249 0.0 3.2 0.00 0.46 0.00 99 1011.4
20260507050610 12 254 0.0 3.2 0.00 0.46 0.00 99 1011.4
20260507045923 12 0 0.0 0.0 0.00 0.46 0.00 99 1011.3
20260507045020 12 0 0.0 0.0 0.00 0.46 0.00 99 1011.2
20260507043910 12 0 0.0 0.0 0.00 0.46 0.00 99 1011.0
20260507043220 12 0 0.0 0.0 0.00 0.46 0.00 99 1010.8
20260507042322 12 0 0.0 0.0 0.00 0.46 0.00 99 1010.6
20260507041419 12 0 0.0 0.0 0.00 0.46 0.00 99 1010.6
20260507040310 12 85 0.0 3.2 0.00 0.46 0.00 99 1010.5
20260507035624 12 77 0.0 3.2 0.00 0.46 0.00 99 1010.6
20260507034722 12 360 0.0 4.8 0.00 0.46 0.00 99 1010.5
20260507033824 12 13 0.0 4.8 0.00 0.46 0.00 99 1010.3
20260507032921 13 28 0.0 6.4 0.00 0.46 0.00 99 1010.4
20260507032024 13 346 0.0 4.8 0.00 0.46 0.00 99 1010.4
20260507031121 13 315 0.0 3.2 0.00 0.46 0.00 99 1010.4
20260507030010 13 358 0.0 3.2 0.00 0.46 0.00 99 1010.4
20260507025321 13 21 0.0 3.2 0.00 0.46 0.00 99 1010.4
20260507024210 13 90 0.0 3.2 0.00 0.46 0.00 99 1010.4
20260507023520 13 42 0.0 4.8 0.00 0.46 0.00 99 1010.5
20260507022623 13 14 3.2 6.4 0.00 0.46 0.00 99 1010.4
20260507021510 13 1 3.2 8.0 0.00 0.46 0.00 99 1010.4
20260507020610 13 341 3.2 9.7 0.00 0.46 0.00 99 1010.5
20260507015710 13 13 1.6 9.7 0.00 0.46 0.00 99 1010.5
20260507014810 13 14 3.2 6.4 0.00 0.46 0.00 99 1010.3
20260507014124 13 12 3.2 8.0 0.00 0.46 0.00 99 1010.2
20260507013222 13 339 0.0 4.8 0.00 0.46 0.00 99 1010.4
20260507012110 13 8 1.6 4.8 0.00 0.46 0.00 99 1010.3
20260507010524 12 3 0.0 4.8 0.00 0.46 0.00 99 1010.3
20260507005410 12 3 1.6 6.4 0.00 0.46 0.00 99 1010.4
20260507004723 12 10 3.2 6.4 0.00 0.46 0.00 99 1010.2
20260507003610 12 1 3.2 6.4 0.00 0.46 0.00 99 1010.2
20260507002710 13 21 1.6 6.4 0.00 0.46 0.00 99 1010.2
20260507002020 13 15 1.6 6.4 0.00 0.46 0.00 99 1010.3
20260507000910 12 0 0.0 0.0 0.00 0.46 0.00 99 1010.2
20260507000220 12 270 0.0 3.2 0.00 0.46 0.00 99 1010.3
20260506235323 12 360 0.0 3.2 0.00 0.46 0.00 99 1010.2
20260506234420 12 0 0.0 0.0 0.00 0.46 0.00 99 1010.2
20260506233310 13 360 0.0 3.2 0.00 0.46 0.00 99 1010.1
20260506232619 13 20 0.0 4.8 0.00 0.46 0.00 99 1010.1
20260506231722 13 13 3.2 6.4 0.00 0.46 0.00 99 1010.1
20260506230824 13 8 1.6 6.4 0.00 0.46 0.00 99 1010.1
20260506225922 13 2 1.6 4.8 0.00 0.46 0.00 99 1010.2
20260506225024 13 357 0.0 4.8 0.00 0.46 0.00 99 1010.0
20260506224121 13 0 0.0 0.0 0.00 0.46 0.00 98 1010.1
20260506223010 13 0 0.0 0.0 0.00 0.46 0.00 98 1010.2
20260506222321 13 0 0.0 0.0 0.00 0.46 0.00 98 1010.3
20260506221211 13 14 0.0 6.4 0.00 0.46 0.00 98 1010.1
20260506220310 13 16 1.6 6.4 0.00 0.46 0.00 97 1010.0
20260506215623 13 360 1.6 6.4 0.00 0.46 0.46 98 1010.1
20260506214720 13 9 0.0 4.8 0.00 0.46 0.46 97 1010.1
20260506213610 13 358 1.6 4.8 0.00 0.46 0.46 97 1010.0
20260506212920 13 2 0.0 6.4 0.00 0.46 0.46 97 1010.1
20260506211810 14 349 0.0 3.2 0.00 0.46 0.46 96 1010.1
20260506211120 14 45 0.0 3.2 0.00 0.46 0.46 96 1010.1